SIA636 WSSS-RJTT

Flight info

Callsign SIA636
Flight time 6h 59m
Altitude 39000
Route TOMAN3A TOMAN L625 AKMON/K0907F390 L625 ANOKI/N0489F390 L625 MEVIN B462 KAZIK Y59 AZAMA Y57 SUKBO Y571 BILLY Y21 AKSEL
Aircraft A359/H-SDE2E3GHIJ3J4J5LM1ORWXY/LB1D1

Departure

Time 2026-05-05 16:24
Airport Singapore Changi Airport (WSSS)

Arrival

Time 2026-05-05 23:23
Airport Tokyo Haneda International Airport (RJTT)
Time Latitude Longitude Altitude Speed Heading
2026-05-05 16:06 1.35887 103.98574 33 ft 0 kts 137°
2026-05-05 16:11 1.35911 103.98553 32 ft 4 kts 141°
2026-05-05 16:12 1.35932 103.98537 31 ft 4 kts 144°
2026-05-05 16:12 1.35954 103.98521 31 ft 4 kts 144°
2026-05-05 16:14 1.35902 103.98488 33 ft 14 kts 213°
2026-05-05 16:15 1.35710 103.98382 34 ft 17 kts 202°
2026-05-05 16:15 1.35483 103.98287 35 ft 18 kts 204°
2026-05-05 16:16 1.35215 103.98174 36 ft 27 kts 202°
2026-05-05 16:16 1.34832 103.98015 37 ft 12 kts 194°
2026-05-05 16:17 1.34754 103.98121 37 ft 16 kts 109°
2026-05-05 16:17 1.34702 103.98242 35 ft 22 kts 116°
2026-05-05 16:18 1.34555 103.98583 31 ft 28 kts 113°
2026-05-05 16:18 1.34497 103.98719 30 ft 13 kts 113°
2026-05-05 16:18 1.34415 103.98905 29 ft 16 kts 125°
2026-05-05 16:19 1.34322 103.98911 29 ft 15 kts 202°
2026-05-05 16:19 1.34224 103.98870 29 ft 16 kts 203°
2026-05-05 16:19 1.34004 103.98777 28 ft 18 kts 203°
2026-05-05 16:20 1.33756 103.98672 28 ft 20 kts 203°
2026-05-05 16:20 1.33485 103.98557 28 ft 22 kts 203°
2026-05-05 16:21 1.33199 103.98438 28 ft 23 kts 202°
2026-05-05 16:22 1.32944 103.98383 28 ft 11 kts 127°
2026-05-05 16:22 1.32938 103.98527 28 ft 12 kts 30°
2026-05-05 16:23 1.32981 103.98546 28 ft 0 kts 21°
2026-05-05 16:23 1.33002 103.98554 29 ft 15 kts 21°
2026-05-05 16:23 1.34020 103.98979 30 ft 137 kts 22°
2026-05-05 16:24 1.35041 103.99407 69 ft 179 kts 23°
2026-05-05 16:24 1.36160 103.99875 773 ft 172 kts 23°
2026-05-05 16:24 1.38498 104.00864 1541 ft 202 kts 24°
2026-05-05 16:25 1.39868 104.01447 1764 ft 224 kts 24°
2026-05-05 16:25 1.43014 104.02780 2456 ft 261 kts 23°
2026-05-05 16:25 1.44702 104.03493 3137 ft 264 kts 23°
2026-05-05 16:26 1.47526 104.05786 4446 ft 271 kts 64°
2026-05-05 16:26 1.47461 104.09461 5768 ft 275 kts 114°
2026-05-05 16:27 1.46643 104.11200 6430 ft 278 kts 116°
2026-05-05 16:27 1.45795 104.12946 7076 ft 281 kts 116°
2026-05-05 16:27 1.44950 104.14714 7743 ft 283 kts 116°
2026-05-05 16:27 1.44101 104.16512 8432 ft 286 kts 115°
2026-05-05 16:28 1.43264 104.18299 9163 ft 287 kts 115°
2026-05-05 16:28 1.42444 104.20074 10137 ft 277 kts 115°
2026-05-05 16:28 1.41638 104.21812 10926 ft 274 kts 115°
2026-05-05 16:28 1.40832 104.23548 11603 ft 275 kts 115°
2026-05-05 16:29 1.40024 104.25292 12189 ft 278 kts 115°
2026-05-05 16:29 1.39211 104.27048 12856 ft 279 kts 114°
2026-05-05 16:29 1.38392 104.28818 13507 ft 282 kts 114°
2026-05-05 16:29 1.37564 104.30607 14110 ft 284 kts 114°
2026-05-05 16:30 1.36732 104.32405 14700 ft 286 kts 114°
2026-05-05 16:30 1.35896 104.34215 15275 ft 288 kts 114°
2026-05-05 16:30 1.35051 104.36042 15856 ft 290 kts 114°
2026-05-05 16:30 1.34212 104.37855 16438 ft 292 kts 114°
2026-05-05 16:31 1.33460 104.39748 17006 ft 294 kts 106°
2026-05-05 16:31 1.33069 104.41762 17573 ft 296 kts 94°
2026-05-05 16:31 1.33037 104.43832 18145 ft 298 kts 88°
2026-05-05 16:31 1.33097 104.45917 18624 ft 301 kts 88°
2026-05-05 16:32 1.33161 104.48011 19089 ft 303 kts 88°
2026-05-05 16:32 1.33220 104.50126 19545 ft 306 kts 88°
2026-05-05 16:32 1.33276 104.52257 20002 ft 308 kts 88°
2026-05-05 16:32 1.33330 104.54405 20474 ft 310 kts 88°
2026-05-05 16:33 1.33383 104.56566 20923 ft 312 kts 88°
2026-05-05 16:33 1.33437 104.58748 21374 ft 315 kts 88°
2026-05-05 16:33 1.33490 104.60941 21823 ft 317 kts 88°
2026-05-05 16:33 1.33543 104.63151 22275 ft 319 kts 88°
2026-05-05 16:34 1.33596 104.65348 22724 ft 322 kts 88°
2026-05-05 16:34 1.33650 104.67593 23165 ft 324 kts 88°
2026-05-05 16:34 1.33704 104.69864 23586 ft 327 kts 88°
2026-05-05 16:34 1.33759 104.72143 23947 ft 329 kts 88°
2026-05-05 16:35 1.33814 104.74436 24314 ft 331 kts 88°
2026-05-05 16:35 1.33869 104.76743 24684 ft 333 kts 88°
2026-05-05 16:35 1.33924 104.79046 25048 ft 335 kts 88°
2026-05-05 16:35 1.33981 104.81393 25416 ft 337 kts 88°
2026-05-05 16:36 1.34037 104.83748 25770 ft 340 kts 88°
2026-05-05 16:36 1.34093 104.86116 26124 ft 342 kts 88°
2026-05-05 16:36 1.34151 104.88509 26481 ft 344 kts 88°
2026-05-05 16:36 1.34208 104.90907 26824 ft 346 kts 89°
2026-05-05 16:37 1.34266 104.93328 27144 ft 349 kts 89°
2026-05-05 16:37 1.34324 104.95733 27450 ft 353 kts 89°
2026-05-05 16:37 1.34384 104.98227 27752 ft 357 kts 89°
2026-05-05 16:37 1.34443 105.00681 28058 ft 360 kts 89°
2026-05-05 16:38 1.34503 105.03192 28344 ft 364 kts 89°
2026-05-05 16:38 1.34564 105.05739 28631 ft 368 kts 89°
2026-05-05 16:38 1.34626 105.08306 28901 ft 372 kts 89°
2026-05-05 16:38 1.34688 105.10906 29183 ft 376 kts 89°
2026-05-05 16:39 1.34751 105.13526 29460 ft 380 kts 89°
2026-05-05 16:39 1.34814 105.16177 29729 ft 384 kts 89°
2026-05-05 16:39 1.34879 105.18864 29994 ft 387 kts 89°
2026-05-05 16:39 1.34943 105.21566 30214 ft 391 kts 89°
2026-05-05 16:40 1.35009 105.24295 30449 ft 395 kts 89°
2026-05-05 16:40 1.35075 105.27050 30689 ft 398 kts 89°
2026-05-05 16:40 1.35141 105.29839 30913 ft 402 kts 89°
2026-05-05 16:40 1.35208 105.32642 31141 ft 405 kts 89°
2026-05-05 16:41 1.35275 105.35427 31375 ft 408 kts 89°
2026-05-05 16:41 1.35343 105.38281 31588 ft 412 kts 89°
2026-05-05 16:41 1.35411 105.41153 31810 ft 415 kts 89°
2026-05-05 16:41 1.35480 105.44047 32033 ft 418 kts 89°
2026-05-05 16:42 1.35550 105.46963 32258 ft 421 kts 89°
2026-05-05 16:42 1.35620 105.49904 32485 ft 424 kts 89°
2026-05-05 16:42 1.35690 105.52867 32711 ft 427 kts 89°
2026-05-05 16:42 1.35761 105.55844 32928 ft 430 kts 89°
2026-05-05 16:43 1.35832 105.58840 33143 ft 433 kts 89°
2026-05-05 16:43 1.35903 105.61820 33356 ft 435 kts 89°
2026-05-05 16:43 1.35975 105.64862 33569 ft 438 kts 89°
2026-05-05 16:43 1.36048 105.67915 33784 ft 441 kts 89°
2026-05-05 16:44 1.36130 105.70986 33973 ft 444 kts 88°
2026-05-05 16:44 1.36544 105.74047 34145 ft 446 kts 76°
2026-05-05 16:44 1.37647 105.76948 34314 ft 449 kts 62°
2026-05-05 16:44 1.39436 105.79513 34489 ft 452 kts 48°
2026-05-05 16:45 1.41816 105.81581 34674 ft 456 kts 34°
2026-05-05 16:45 1.44548 105.83202 34867 ft 458 kts 30°
2026-05-05 16:45 1.47381 105.84705 35061 ft 460 kts 28°
2026-05-05 16:45 1.49270 105.85665 35196 ft 461 kts 27°
2026-05-05 16:46 1.52139 105.87101 35400 ft 462 kts 27°
2026-05-05 16:46 1.55026 105.88547 35596 ft 464 kts 27°
2026-05-05 16:46 1.58848 105.90482 35852 ft 466 kts 28°
2026-05-05 16:46 1.61740 105.91963 36037 ft 467 kts 28°
2026-05-05 16:47 1.63695 105.92970 36177 ft 468 kts 28°
2026-05-05 16:47 1.66554 105.94448 36380 ft 469 kts 28°
2026-05-05 16:47 1.69455 105.95951 36578 ft 470 kts 28°
2026-05-05 16:47 1.72362 105.97458 36780 ft 471 kts 28°
2026-05-05 16:48 1.75269 105.98965 36976 ft 471 kts 28°
2026-05-05 16:48 1.78185 106.00476 37180 ft 471 kts 28°
2026-05-05 16:48 1.81107 106.01989 37417 ft 471 kts 28°
2026-05-05 16:48 1.83982 106.03478 37633 ft 471 kts 28°
2026-05-05 16:49 1.86894 106.04986 37872 ft 470 kts 28°
2026-05-05 16:49 1.89796 106.06489 38092 ft 469 kts 28°
2026-05-05 16:49 1.92695 106.07992 38317 ft 469 kts 28°
2026-05-05 16:49 1.95595 106.09497 38532 ft 468 kts 28°
2026-05-05 16:50 1.98479 106.10988 38722 ft 467 kts 28°
2026-05-05 16:50 2.01363 106.12477 38864 ft 467 kts 28°
2026-05-05 16:50 2.07117 106.15449 38908 ft 464 kts 28°
2026-05-05 16:51 2.12846 106.18411 38892 ft 464 kts 28°
2026-05-05 16:51 2.18578 106.21377 38907 ft 464 kts 28°
2026-05-05 16:52 2.24282 106.24328 38894 ft 464 kts 28°
2026-05-05 16:52 2.30024 106.27300 38894 ft 464 kts 28°
2026-05-05 16:53 2.35767 106.30272 38895 ft 464 kts 28°
2026-05-05 16:53 2.41508 106.33243 38900 ft 464 kts 28°
2026-05-05 16:54 2.47245 106.36212 38896 ft 464 kts 28°
2026-05-05 16:54 2.52979 106.39181 38912 ft 464 kts 28°
2026-05-05 16:55 2.58721 106.42156 38898 ft 464 kts 28°
2026-05-05 16:55 2.64454 106.45125 38895 ft 464 kts 28°
2026-05-05 16:56 2.70160 106.48080 38898 ft 464 kts 28°
2026-05-05 16:56 2.75896 106.51053 38897 ft 464 kts 28°
2026-05-05 16:57 2.81636 106.54030 38903 ft 464 kts 28°
2026-05-05 16:57 2.87385 106.57007 38897 ft 464 kts 28°
2026-05-05 16:58 2.93128 106.59977 38896 ft 464 kts 28°
2026-05-05 16:58 2.98873 106.62945 38894 ft 465 kts 28°
2026-05-05 16:59 3.04579 106.65897 38895 ft 465 kts 28°
2026-05-05 16:59 3.10328 106.68873 38894 ft 465 kts 28°
2026-05-05 17:00 3.16082 106.71853 38891 ft 465 kts 28°
2026-05-05 17:00 3.21836 106.74832 38896 ft 465 kts 28°
2026-05-05 17:01 3.27592 106.77813 38896 ft 465 kts 28°
2026-05-05 17:01 3.33347 106.80794 38895 ft 466 kts 28°
2026-05-05 17:02 3.39106 106.83778 38893 ft 466 kts 28°
2026-05-05 17:02 3.44837 106.86747 38898 ft 466 kts 28°
2026-05-05 17:03 3.50613 106.89740 38895 ft 466 kts 28°
2026-05-05 17:03 3.56311 106.92834 38908 ft 466 kts 35°
2026-05-05 17:04 3.61669 106.96474 38895 ft 465 kts 36°
2026-05-05 17:04 3.66955 107.00208 38892 ft 464 kts 36°
2026-05-05 17:05 3.72168 107.03910 38904 ft 460 kts 36°
2026-05-05 17:05 3.77394 107.07610 38891 ft 460 kts 36°
2026-05-05 17:06 3.82625 107.11306 38892 ft 460 kts 36°
2026-05-05 17:06 3.87858 107.15001 38895 ft 459 kts 36°
2026-05-05 17:07 3.93082 107.18692 38892 ft 459 kts 36°
2026-05-05 17:07 3.98311 107.22387 38893 ft 459 kts 36°
2026-05-05 17:08 4.03497 107.26053 38896 ft 459 kts 36°
2026-05-05 17:08 4.08730 107.29752 38893 ft 458 kts 36°
2026-05-05 17:09 4.13944 107.33438 38891 ft 459 kts 36°
2026-05-05 17:09 4.19166 107.37130 38890 ft 459 kts 36°
2026-05-05 17:10 4.24349 107.40796 38890 ft 459 kts 36°
2026-05-05 17:10 4.29563 107.44484 38891 ft 459 kts 36°
2026-05-05 17:11 4.34784 107.48178 38887 ft 459 kts 36°
2026-05-05 17:11 4.40004 107.51872 38887 ft 459 kts 36°
2026-05-05 17:12 4.45213 107.55559 38887 ft 458 kts 36°
2026-05-05 17:12 4.50398 107.59229 38888 ft 459 kts 36°
2026-05-05 17:13 4.55623 107.62928 38885 ft 459 kts 36°
2026-05-05 17:13 4.60847 107.66627 38884 ft 459 kts 36°
2026-05-05 17:14 4.66027 107.70295 38882 ft 459 kts 36°
2026-05-05 17:14 4.71245 107.73992 38881 ft 459 kts 36°
2026-05-05 17:15 4.76478 107.77699 38879 ft 460 kts 36°
2026-05-05 17:15 4.81709 107.81406 38878 ft 460 kts 36°
2026-05-05 17:16 4.86896 107.85082 38874 ft 460 kts 36°
2026-05-05 17:16 4.92119 107.88785 38879 ft 460 kts 36°
2026-05-05 17:17 4.97361 107.92502 38878 ft 460 kts 36°
2026-05-05 17:17 5.02597 107.96206 38877 ft 461 kts 35°
2026-05-05 17:18 5.07857 107.99893 38877 ft 461 kts 35°
2026-05-05 17:18 5.13083 108.03556 38879 ft 461 kts 35°
2026-05-05 17:19 5.18334 108.07243 38876 ft 461 kts 35°
2026-05-05 17:19 5.23583 108.10931 38875 ft 461 kts 35°
2026-05-05 17:20 5.28844 108.14630 38878 ft 461 kts 35°
2026-05-05 17:20 5.34103 108.18328 38871 ft 461 kts 36°
2026-05-05 17:21 5.39366 108.22029 38875 ft 461 kts 36°
2026-05-05 17:22 5.47212 108.27549 38873 ft 461 kts 36°
2026-05-05 17:22 5.52461 108.31242 38873 ft 460 kts 36°
2026-05-05 17:23 5.57705 108.34933 38873 ft 460 kts 36°
2026-05-05 17:23 5.62944 108.38621 38871 ft 460 kts 36°
2026-05-05 17:24 5.68156 108.42291 38873 ft 459 kts 36°
2026-05-05 17:24 5.73396 108.45981 38872 ft 459 kts 36°
2026-05-05 17:25 5.78628 108.49667 38868 ft 459 kts 35°
2026-05-05 17:25 5.83851 108.53347 38870 ft 459 kts 36°
2026-05-05 17:26 5.89053 108.57013 38867 ft 458 kts 35°
2026-05-05 17:26 5.94272 108.60692 38865 ft 458 kts 35°
2026-05-05 17:27 5.99494 108.64374 38865 ft 458 kts 35°
2026-05-05 17:27 6.04706 108.68050 38865 ft 457 kts 35°
2026-05-05 17:28 6.09919 108.71727 38882 ft 457 kts 35°
2026-05-05 17:28 6.15093 108.75379 38871 ft 457 kts 35°
2026-05-05 17:29 6.20308 108.79059 38863 ft 457 kts 35°
2026-05-05 17:29 6.25529 108.82745 38862 ft 457 kts 35°
2026-05-05 17:30 6.30713 108.86405 38878 ft 457 kts 35°
2026-05-05 17:30 6.35928 108.90088 38862 ft 458 kts 35°
2026-05-05 17:31 6.41142 108.93772 38873 ft 458 kts 35°
2026-05-05 17:31 6.46366 108.97464 38860 ft 459 kts 35°
2026-05-05 17:32 6.51570 109.01141 38862 ft 459 kts 36°
2026-05-05 17:32 6.56805 109.04842 38862 ft 460 kts 36°
2026-05-05 17:33 6.62043 109.08547 38877 ft 460 kts 36°
2026-05-05 17:33 6.67251 109.12231 38861 ft 460 kts 36°
2026-05-05 17:34 6.72496 109.15942 38876 ft 460 kts 36°
2026-05-05 17:34 6.77734 109.19650 38853 ft 460 kts 36°
2026-05-05 17:35 6.82965 109.23354 38873 ft 460 kts 36°
2026-05-05 17:35 6.87323 109.26440 38870 ft 460 kts 36°
2026-05-05 17:36 6.92561 109.30150 38859 ft 461 kts 36°
2026-05-05 17:36 6.97814 109.33872 38870 ft 461 kts 36°
2026-05-05 17:37 7.03032 109.37570 38869 ft 461 kts 36°
2026-05-05 17:37 7.08289 109.41296 38858 ft 462 kts 36°
2026-05-05 17:38 7.13558 109.45033 38871 ft 462 kts 36°
2026-05-05 17:38 7.18782 109.48738 38856 ft 462 kts 36°
2026-05-05 17:39 7.24046 109.52473 38871 ft 462 kts 36°
2026-05-05 17:39 7.29305 109.56206 38856 ft 462 kts 36°
2026-05-05 17:40 7.34561 109.59937 38866 ft 461 kts 36°
2026-05-05 17:40 7.39777 109.63641 38852 ft 462 kts 36°
2026-05-05 17:41 7.45027 109.67370 38868 ft 461 kts 36°
2026-05-05 17:41 7.50287 109.71108 38853 ft 461 kts 36°
2026-05-05 17:42 7.55534 109.74837 38852 ft 461 kts 35°
2026-05-05 17:42 7.60741 109.78540 38850 ft 461 kts 35°
2026-05-05 17:43 7.65968 109.82257 38867 ft 461 kts 35°
2026-05-05 17:43 7.71232 109.86002 38851 ft 461 kts 35°
2026-05-05 17:44 7.76484 109.89740 38865 ft 461 kts 35°
2026-05-05 17:44 7.81715 109.93464 38853 ft 461 kts 35°
2026-05-05 17:45 7.86969 109.97205 38851 ft 461 kts 35°
2026-05-05 17:45 7.92210 110.00939 38863 ft 461 kts 35°
2026-05-05 17:46 7.97426 110.04656 38850 ft 461 kts 35°
2026-05-05 17:46 8.02679 110.08399 38864 ft 461 kts 35°
2026-05-05 17:47 8.07896 110.12119 38850 ft 462 kts 35°
2026-05-05 17:47 8.13146 110.15864 38864 ft 462 kts 35°
2026-05-05 17:48 8.18396 110.19610 38847 ft 462 kts 35°
2026-05-05 17:48 8.23650 110.23364 38864 ft 462 kts 36°
2026-05-05 17:49 8.28900 110.27143 38849 ft 463 kts 36°
2026-05-05 17:49 8.34113 110.30904 38851 ft 463 kts 36°
2026-05-05 17:50 8.39355 110.34685 38851 ft 463 kts 36°
2026-05-05 17:50 8.44607 110.38470 38852 ft 463 kts 36°
2026-05-05 17:51 8.49864 110.42260 38866 ft 463 kts 36°
2026-05-05 17:51 8.55116 110.46048 38852 ft 463 kts 36°
2026-05-05 17:52 8.60365 110.49835 38852 ft 463 kts 36°
2026-05-05 17:52 8.65581 110.53600 38856 ft 463 kts 36°
2026-05-05 17:53 8.70825 110.57387 38850 ft 462 kts 36°
2026-05-05 17:53 8.76065 110.61172 38854 ft 463 kts 36°
2026-05-05 17:54 8.81314 110.64964 38855 ft 463 kts 36°
2026-05-05 17:54 8.86563 110.68758 38852 ft 463 kts 36°
2026-05-05 17:55 8.91778 110.72529 38853 ft 464 kts 36°
2026-05-05 17:55 8.97031 110.76328 38850 ft 464 kts 36°
2026-05-05 17:56 9.02294 110.80137 38850 ft 465 kts 36°
2026-05-05 17:56 9.07531 110.83927 38850 ft 465 kts 36°
2026-05-05 17:57 9.12802 110.87744 38851 ft 465 kts 36°
2026-05-05 17:57 9.18080 110.91567 38853 ft 466 kts 36°
2026-05-05 17:58 9.23356 110.95391 38853 ft 466 kts 36°
2026-05-05 17:58 9.28600 110.99192 38851 ft 467 kts 36°
2026-05-05 17:59 9.33887 111.03026 38851 ft 467 kts 36°
2026-05-05 17:59 9.39174 111.06862 38853 ft 467 kts 36°
2026-05-05 18:00 9.44452 111.10692 38851 ft 467 kts 36°
2026-05-05 18:00 9.49718 111.14516 38853 ft 467 kts 36°
2026-05-05 18:01 9.55013 111.18362 38856 ft 467 kts 36°
2026-05-05 18:01 9.60311 111.22215 38855 ft 467 kts 36°
2026-05-05 18:02 9.65566 111.26033 38855 ft 468 kts 36°
2026-05-05 18:02 9.70861 111.29882 38853 ft 468 kts 36°
2026-05-05 18:03 9.76157 111.33734 38853 ft 468 kts 36°
2026-05-05 18:03 9.81450 111.37586 38851 ft 469 kts 36°
2026-05-05 18:04 9.86756 111.41449 38854 ft 469 kts 36°
2026-05-05 18:04 9.92023 111.45286 38846 ft 469 kts 36°
2026-05-05 18:05 9.97325 111.49149 38850 ft 469 kts 36°
2026-05-05 18:05 10.02629 111.53016 38854 ft 469 kts 36°
2026-05-05 18:06 10.07928 111.56880 38854 ft 469 kts 36°
2026-05-05 18:06 10.13230 111.60748 38853 ft 470 kts 36°
2026-05-05 18:07 10.18544 111.64626 38853 ft 470 kts 36°
2026-05-05 18:07 10.23854 111.68503 38854 ft 470 kts 36°
2026-05-05 18:08 10.29134 111.72360 38855 ft 470 kts 35°
2026-05-05 18:08 10.34453 111.76247 38857 ft 471 kts 35°
2026-05-05 18:09 10.39780 111.80142 38852 ft 471 kts 35°
2026-05-05 18:09 10.45105 111.84036 38858 ft 471 kts 35°
2026-05-05 18:10 10.50442 111.87941 38855 ft 472 kts 35°
2026-05-05 18:10 10.55740 111.91820 38852 ft 472 kts 35°
2026-05-05 18:11 10.61076 111.95729 38855 ft 473 kts 35°
2026-05-05 18:11 10.66418 111.99642 38855 ft 473 kts 35°
2026-05-05 18:12 10.71755 112.03554 38855 ft 473 kts 35°
2026-05-05 18:12 10.77103 112.07477 38855 ft 474 kts 35°
2026-05-05 18:13 10.82426 112.11382 38855 ft 474 kts 35°
2026-05-05 18:13 10.87784 112.15315 38855 ft 475 kts 34°
2026-05-05 18:14 10.93157 112.19261 38854 ft 475 kts 34°
2026-05-05 18:14 10.98520 112.23199 38855 ft 474 kts 34°
2026-05-05 18:15 11.03855 112.27095 38853 ft 474 kts 34°
2026-05-05 18:15 11.09223 112.31015 38850 ft 474 kts 34°
2026-05-05 18:16 11.14582 112.34936 38852 ft 473 kts 34°
2026-05-05 18:16 11.19897 112.38828 38851 ft 472 kts 34°
2026-05-05 18:17 11.25231 112.42735 38853 ft 472 kts 34°
2026-05-05 18:17 11.30575 112.46652 38853 ft 472 kts 34°
2026-05-05 18:18 11.35907 112.50562 38854 ft 472 kts 34°
2026-05-05 18:18 11.41205 112.54449 38855 ft 472 kts 34°
2026-05-05 18:19 11.46544 112.58368 38855 ft 472 kts 34°
2026-05-05 18:19 11.51872 112.62291 38855 ft 472 kts 34°
2026-05-05 18:20 11.57160 112.66187 38859 ft 471 kts 34°
2026-05-05 18:20 11.62474 112.70103 38856 ft 471 kts 34°
2026-05-05 18:21 11.67790 112.74023 38854 ft 472 kts 34°
2026-05-05 18:21 11.73114 112.77951 38855 ft 472 kts 34°
2026-05-05 18:22 11.78433 112.81878 38854 ft 472 kts 34°
2026-05-05 18:22 11.83763 112.85814 38856 ft 472 kts 34°
2026-05-05 18:23 11.88192 112.89086 38857 ft 472 kts 34°
2026-05-05 18:23 11.93516 112.93022 38858 ft 472 kts 34°
2026-05-05 18:24 11.98849 112.96966 38857 ft 473 kts 34°
2026-05-05 18:24 12.05042 113.01548 38855 ft 473 kts 34°
2026-05-05 18:25 12.09480 113.04834 38856 ft 473 kts 34°
2026-05-05 18:25 12.14815 113.08785 38856 ft 473 kts 34°
2026-05-05 18:26 12.20113 113.12712 38858 ft 473 kts 34°
2026-05-05 18:26 12.25443 113.16664 38854 ft 473 kts 34°
2026-05-05 18:27 12.30777 113.20621 38855 ft 473 kts 34°
2026-05-05 18:27 12.36110 113.24579 38858 ft 473 kts 34°
2026-05-05 18:28 12.44120 113.30524 38862 ft 474 kts 33°
2026-05-05 18:28 12.49466 113.34482 38858 ft 474 kts 33°
2026-05-05 18:29 12.54806 113.38441 38854 ft 474 kts 33°
2026-05-05 18:29 12.60145 113.42405 38856 ft 474 kts 33°
2026-05-05 18:30 12.65455 113.46348 38863 ft 474 kts 34°
2026-05-05 18:30 12.70805 113.50324 38861 ft 474 kts 33°
2026-05-05 18:31 12.76146 113.54295 38864 ft 474 kts 34°
2026-05-05 18:31 12.81449 113.58241 38859 ft 474 kts 34°
2026-05-05 18:32 12.86791 113.62216 38860 ft 474 kts 34°
2026-05-05 18:32 12.92135 113.66196 38862 ft 474 kts 34°
2026-05-05 18:33 12.97477 113.70177 38860 ft 474 kts 34°
2026-05-05 18:33 13.02819 113.74159 38861 ft 474 kts 34°
2026-05-05 18:34 13.08161 113.78144 38862 ft 475 kts 34°
2026-05-05 18:34 13.13479 113.82113 38862 ft 475 kts 34°
2026-05-05 18:35 13.18825 113.86105 38858 ft 475 kts 34°
2026-05-05 18:35 13.24170 113.90099 38858 ft 475 kts 34°
2026-05-05 18:36 13.29514 113.94093 38862 ft 475 kts 34°
2026-05-05 18:36 13.34862 113.98094 38863 ft 475 kts 34°
2026-05-05 18:37 13.40174 114.02070 38865 ft 475 kts 34°
2026-05-05 18:37 13.45526 114.06078 38863 ft 475 kts 33°
2026-05-05 18:38 13.50889 114.10096 38864 ft 476 kts 33°
2026-05-05 18:38 13.56238 114.14106 38862 ft 476 kts 33°
2026-05-05 18:39 13.61556 114.18095 38863 ft 476 kts 33°
2026-05-05 18:39 13.66906 114.22111 38863 ft 476 kts 33°
2026-05-05 18:40 13.72261 114.26132 38862 ft 476 kts 33°
2026-05-05 18:40 13.77608 114.30149 38861 ft 476 kts 33°
2026-05-05 18:41 13.82921 114.34144 38862 ft 476 kts 33°
2026-05-05 18:41 13.88272 114.38169 38865 ft 476 kts 33°
2026-05-05 18:42 13.93635 114.42206 38861 ft 476 kts 33°
2026-05-05 18:42 13.98700 114.46551 38866 ft 479 kts 42°
2026-05-05 18:43 14.03359 114.51480 38859 ft 481 kts 44°
2026-05-05 18:43 14.07949 114.56503 38866 ft 481 kts 44°
2026-05-05 18:44 14.12531 114.61530 38862 ft 481 kts 44°
2026-05-05 18:44 14.17123 114.66548 38861 ft 481 kts 44°
2026-05-05 18:45 14.21718 114.71563 38866 ft 481 kts 44°
2026-05-05 18:45 14.26289 114.76552 38862 ft 481 kts 44°
2026-05-05 18:46 14.30885 114.81573 38862 ft 481 kts 44°
2026-05-05 18:46 14.35490 114.86608 38863 ft 481 kts 44°
2026-05-05 18:47 14.40083 114.91632 38865 ft 481 kts 44°
2026-05-05 18:47 14.44648 114.96629 38863 ft 481 kts 44°
2026-05-05 18:48 14.49237 115.01656 38869 ft 481 kts 44°
2026-05-05 18:48 14.53829 115.06689 38855 ft 481 kts 44°
2026-05-05 18:49 14.58419 115.11724 38854 ft 481 kts 44°
2026-05-05 18:49 14.63004 115.16755 38869 ft 481 kts 44°
2026-05-05 18:50 14.67560 115.21759 38857 ft 480 kts 44°
2026-05-05 18:50 14.72144 115.26796 38870 ft 480 kts 44°
2026-05-05 18:51 14.76723 115.31832 38855 ft 481 kts 44°
2026-05-05 18:51 14.81278 115.36845 38858 ft 481 kts 44°
2026-05-05 18:52 14.85866 115.41896 38861 ft 481 kts 44°
2026-05-05 18:52 14.90449 115.46946 38860 ft 481 kts 44°
2026-05-05 18:53 14.95020 115.51985 38858 ft 481 kts 44°
2026-05-05 18:53 14.99570 115.57006 38858 ft 481 kts 44°
2026-05-05 18:54 15.04147 115.62060 38863 ft 481 kts 44°
2026-05-05 18:54 15.08733 115.67126 38862 ft 481 kts 44°
2026-05-05 18:55 15.13306 115.72182 38865 ft 481 kts 44°
2026-05-05 18:55 15.17848 115.77206 38862 ft 481 kts 44°
2026-05-05 18:56 15.22425 115.82273 38863 ft 481 kts 44°
2026-05-05 18:56 15.27008 115.87351 38862 ft 481 kts 44°
2026-05-05 18:57 15.31554 115.92390 38861 ft 481 kts 44°
2026-05-05 18:57 15.36131 115.97466 38862 ft 481 kts 44°
2026-05-05 18:58 15.40701 116.02540 38861 ft 481 kts 44°
2026-05-05 18:58 15.45248 116.07590 38863 ft 482 kts 44°
2026-05-05 18:59 15.49819 116.12671 38863 ft 482 kts 44°
2026-05-05 18:59 15.54400 116.17767 38864 ft 482 kts 44°
2026-05-05 19:00 15.58977 116.22862 38868 ft 482 kts 44°
2026-05-05 19:00 15.63530 116.27935 38866 ft 482 kts 44°
2026-05-05 19:01 15.68113 116.33043 38865 ft 482 kts 44°
2026-05-05 19:01 15.72691 116.38150 38865 ft 482 kts 44°
2026-05-05 19:02 15.77259 116.43249 38865 ft 482 kts 44°
2026-05-05 19:02 15.81830 116.48355 38867 ft 482 kts 44°
2026-05-05 19:03 15.86373 116.53434 38866 ft 482 kts 44°
2026-05-05 19:03 15.90940 116.58543 38866 ft 483 kts 44°
2026-05-05 19:04 15.95513 116.63663 38864 ft 483 kts 44°
2026-05-05 19:04 16.00080 116.68780 38866 ft 482 kts 44°
2026-05-05 19:05 16.04647 116.73899 38869 ft 482 kts 44°
2026-05-05 19:05 16.09211 116.79020 38862 ft 482 kts 44°
2026-05-05 19:06 16.13753 116.84119 38865 ft 482 kts 44°
2026-05-05 19:06 16.18315 116.89246 38867 ft 482 kts 44°
2026-05-05 19:07 16.22107 116.93509 38869 ft 482 kts 44°
2026-05-05 19:07 16.27406 116.99470 38863 ft 482 kts 44°
2026-05-05 19:08 16.31955 117.04593 38865 ft 482 kts 44°
2026-05-05 19:08 16.36511 117.09727 38866 ft 481 kts 44°
2026-05-05 19:09 16.41036 117.14831 38867 ft 481 kts 44°
2026-05-05 19:09 16.45578 117.19957 38867 ft 481 kts 45°
2026-05-05 19:10 16.50094 117.25062 38867 ft 481 kts 44°
2026-05-05 19:10 16.54630 117.30187 38866 ft 481 kts 45°
2026-05-05 19:11 16.59170 117.35320 38864 ft 481 kts 45°
2026-05-05 19:11 16.62935 117.39582 38867 ft 480 kts 45°
2026-05-05 19:12 16.67464 117.44712 38865 ft 480 kts 45°
2026-05-05 19:12 16.72726 117.50677 38863 ft 480 kts 45°
2026-05-05 19:13 16.76488 117.54945 38867 ft 480 kts 45°
2026-05-05 19:13 16.81004 117.60073 38864 ft 479 kts 45°
2026-05-05 19:14 16.85517 117.65201 38868 ft 479 kts 45°
2026-05-05 19:14 16.90026 117.70327 38866 ft 479 kts 45°
2026-05-05 19:15 16.94534 117.75457 38866 ft 479 kts 45°
2026-05-05 19:15 16.99024 117.80570 38867 ft 479 kts 45°
2026-05-05 19:16 17.03540 117.85717 38867 ft 480 kts 45°
2026-05-05 19:16 17.08053 117.90864 38865 ft 480 kts 45°
2026-05-05 19:17 17.12566 117.96016 38862 ft 480 kts 45°
2026-05-05 19:17 17.17047 118.01134 38867 ft 480 kts 45°
2026-05-05 19:18 17.21564 118.06297 38866 ft 480 kts 45°
2026-05-05 19:18 17.26083 118.11467 38864 ft 481 kts 45°
2026-05-05 19:19 17.30596 118.16635 38867 ft 481 kts 45°
2026-05-05 19:19 17.35112 118.21810 38864 ft 481 kts 45°
2026-05-05 19:20 17.39603 118.26960 38867 ft 482 kts 45°
2026-05-05 19:20 17.44128 118.32153 38863 ft 482 kts 45°
2026-05-05 19:21 17.48646 118.37342 38868 ft 482 kts 45°
2026-05-05 19:21 17.53173 118.42546 38865 ft 482 kts 45°
2026-05-05 19:22 17.57675 118.47725 38867 ft 482 kts 45°
2026-05-05 19:22 17.62194 118.52928 38865 ft 483 kts 45°
2026-05-05 19:23 17.66718 118.58142 38866 ft 483 kts 45°
2026-05-05 19:23 17.71241 118.63357 38866 ft 483 kts 45°
2026-05-05 19:24 17.75763 118.68577 38863 ft 483 kts 45°
2026-05-05 19:24 17.80287 118.73802 38870 ft 484 kts 45°
2026-05-05 19:25 17.84795 118.79012 38867 ft 484 kts 45°
2026-05-05 19:25 17.89324 118.84253 38864 ft 484 kts 45°
2026-05-05 19:26 17.93853 118.89496 38866 ft 484 kts 45°
2026-05-05 19:26 17.98351 118.94710 38867 ft 485 kts 45°
2026-05-05 19:27 18.02885 118.99971 38868 ft 485 kts 45°
2026-05-05 19:27 18.07422 119.05237 38865 ft 485 kts 45°
2026-05-05 19:28 18.11963 119.10511 38864 ft 486 kts 45°
2026-05-05 19:28 18.16473 119.15755 38865 ft 486 kts 45°
2026-05-05 19:29 18.21010 119.21034 38866 ft 486 kts 45°
2026-05-05 19:29 18.25549 119.26321 38866 ft 487 kts 45°
2026-05-05 19:30 18.30101 119.31628 38867 ft 487 kts 45°
2026-05-05 19:30 18.34612 119.36892 38865 ft 487 kts 45°
2026-05-05 19:31 18.39152 119.42192 38864 ft 487 kts 45°
2026-05-05 19:31 18.43696 119.47503 38865 ft 488 kts 45°
2026-05-05 19:32 18.48244 119.52823 38863 ft 488 kts 45°
2026-05-05 19:32 18.52772 119.58124 38866 ft 488 kts 45°
2026-05-05 19:33 18.57316 119.63448 38865 ft 488 kts 45°
2026-05-05 19:33 18.61862 119.68787 38862 ft 489 kts 45°
2026-05-05 19:34 18.66371 119.74081 38864 ft 489 kts 45°
2026-05-05 19:35 18.73219 119.82119 38864 ft 489 kts 45°
2026-05-05 19:35 18.77738 119.87433 38867 ft 490 kts 45°
2026-05-05 19:36 18.82288 119.92791 38865 ft 490 kts 45°
2026-05-05 19:36 18.86843 119.98158 38865 ft 490 kts 45°
2026-05-05 19:37 18.91401 120.03534 38864 ft 491 kts 45°
2026-05-05 19:37 18.95957 120.08912 38866 ft 491 kts 45°
2026-05-05 19:38 19.00519 120.14302 38865 ft 492 kts 45°
2026-05-05 19:38 19.05056 120.19667 38869 ft 492 kts 45°
2026-05-05 19:39 19.09623 120.25074 38867 ft 492 kts 45°
2026-05-05 19:39 19.14188 120.30481 38876 ft 492 kts 45°
2026-05-05 19:40 19.18756 120.35898 38869 ft 493 kts 45°
2026-05-05 19:40 19.23295 120.41284 38868 ft 493 kts 45°
2026-05-05 19:41 19.27870 120.46719 38870 ft 494 kts 45°
2026-05-05 19:41 19.32439 120.52152 38875 ft 494 kts 45°
2026-05-05 19:42 19.37011 120.57593 38872 ft 494 kts 45°
2026-05-05 19:42 19.41578 120.63032 38871 ft 495 kts 45°
2026-05-05 19:43 19.46153 120.68491 38874 ft 495 kts 45°
2026-05-05 19:43 19.50706 120.73922 38874 ft 495 kts 45°
2026-05-05 19:44 19.55292 120.79398 38874 ft 496 kts 45°
2026-05-05 19:44 19.59870 120.84872 38875 ft 496 kts 45°
2026-05-05 19:45 19.64455 120.90360 38879 ft 496 kts 45°
2026-05-05 19:45 19.69033 120.95844 38876 ft 497 kts 45°
2026-05-05 19:46 19.73591 121.01308 38878 ft 497 kts 45°
2026-05-05 19:46 19.78188 121.06825 38882 ft 498 kts 45°
2026-05-05 19:47 19.82775 121.12336 38881 ft 498 kts 45°
2026-05-05 19:47 19.87341 121.17825 38882 ft 498 kts 45°
2026-05-05 19:48 19.91929 121.23347 38884 ft 499 kts 45°
2026-05-05 19:48 19.96527 121.28887 38883 ft 499 kts 45°
2026-05-05 19:49 20.01126 121.34432 38883 ft 500 kts 45°
2026-05-05 19:49 20.05703 121.39957 38884 ft 500 kts 45°
2026-05-05 19:50 20.10310 121.45523 38884 ft 500 kts 45°
2026-05-05 19:50 20.14908 121.51083 38885 ft 501 kts 45°
2026-05-05 19:51 20.19492 121.56633 38888 ft 501 kts 45°
2026-05-05 19:51 20.24095 121.62210 38892 ft 501 kts 45°
2026-05-05 19:52 20.28701 121.67796 38880 ft 502 kts 45°
2026-05-05 19:52 20.33315 121.73398 38900 ft 503 kts 45°
2026-05-05 19:53 20.37935 121.79011 38888 ft 503 kts 45°
2026-05-05 19:53 20.42555 121.84632 38908 ft 504 kts 45°
2026-05-05 19:54 20.47153 121.90230 38892 ft 504 kts 45°
2026-05-05 19:54 20.51783 121.95874 38895 ft 505 kts 45°
2026-05-05 19:55 20.56404 122.01512 38894 ft 505 kts 45°
2026-05-05 19:55 20.61038 122.07171 38896 ft 506 kts 45°
2026-05-05 19:56 20.65673 122.12837 38897 ft 506 kts 45°
2026-05-05 19:56 20.70276 122.18470 38897 ft 506 kts 45°
2026-05-05 19:57 20.74913 122.24150 38899 ft 507 kts 45°
2026-05-05 19:57 20.79549 122.29835 38898 ft 507 kts 45°
2026-05-05 19:58 20.84190 122.35533 38900 ft 507 kts 45°
2026-05-05 19:58 20.88824 122.41226 38902 ft 508 kts 45°
2026-05-05 19:59 20.93468 122.46939 38905 ft 508 kts 45°
2026-05-05 19:59 20.98126 122.52639 38902 ft 508 kts 43°
2026-05-05 20:00 21.02548 122.56688 38906 ft 501 kts 31°
2026-05-05 20:00 21.08284 122.60830 38905 ft 500 kts 28°
2026-05-05 20:01 21.14145 122.64871 38904 ft 500 kts 28°
2026-05-05 20:01 21.20014 122.68916 38905 ft 501 kts 28°
2026-05-05 20:02 21.25877 122.72988 38907 ft 502 kts 28°
2026-05-05 20:02 21.31738 122.77075 38910 ft 502 kts 28°
2026-05-05 20:03 21.37563 122.81144 38910 ft 503 kts 28°
2026-05-05 20:03 21.43433 122.85247 38912 ft 504 kts 28°
2026-05-05 20:04 21.49314 122.89361 38912 ft 504 kts 28°
2026-05-05 20:04 21.55206 122.93487 38910 ft 505 kts 28°
2026-05-05 20:05 21.61097 122.97615 38916 ft 505 kts 28°
2026-05-05 20:05 21.66951 123.01722 38916 ft 506 kts 28°
2026-05-05 20:06 21.72852 123.05865 38917 ft 506 kts 28°
2026-05-05 20:06 21.78752 123.10013 38919 ft 507 kts 28°
2026-05-05 20:07 21.84655 123.14167 38917 ft 507 kts 28°
2026-05-05 20:07 21.90532 123.18306 38920 ft 507 kts 28°
2026-05-05 20:08 21.96481 123.22501 38917 ft 508 kts 28°
2026-05-05 20:08 22.02365 123.26653 38914 ft 508 kts 28°
2026-05-05 20:09 22.08285 123.30836 38917 ft 508 kts 28°
2026-05-05 20:09 22.14204 123.35022 38920 ft 508 kts 28°
2026-05-05 20:10 22.20121 123.39211 38921 ft 509 kts 28°
2026-05-05 20:10 22.26016 123.43388 38925 ft 509 kts 28°
2026-05-05 20:11 22.31942 123.47592 38929 ft 509 kts 28°
2026-05-05 20:11 22.37868 123.51801 38930 ft 510 kts 28°
2026-05-05 20:12 22.43801 123.56018 38929 ft 510 kts 28°
2026-05-05 20:12 22.49732 123.60238 38925 ft 510 kts 28°
2026-05-05 20:13 22.55628 123.64438 38933 ft 511 kts 28°
2026-05-05 20:13 22.61584 123.68685 38935 ft 512 kts 28°
2026-05-05 20:14 22.67541 123.72938 38930 ft 513 kts 28°
2026-05-05 20:14 22.73501 123.77197 38934 ft 513 kts 28°
2026-05-05 20:15 22.79477 123.81472 38936 ft 514 kts 28°
2026-05-05 20:15 22.85396 123.85716 38929 ft 514 kts 28°
2026-05-05 20:16 22.91373 123.89998 38930 ft 515 kts 28°
2026-05-05 20:16 22.97350 123.94285 38930 ft 515 kts 28°
2026-05-05 20:17 23.03332 123.98596 38934 ft 516 kts 28°
2026-05-05 20:17 23.09272 124.02976 38933 ft 516 kts 29°
2026-05-05 20:18 23.15172 124.07353 38931 ft 516 kts 29°
2026-05-05 20:18 23.21123 124.11760 38931 ft 516 kts 29°
2026-05-05 20:19 23.27083 124.16169 38934 ft 517 kts 29°
2026-05-05 20:19 23.32984 124.20557 38930 ft 518 kts 31°
2026-05-05 20:19 23.35759 124.23116 38936 ft 525 kts 42°
2026-05-05 20:20 23.38282 124.25992 38936 ft 526 kts 44°
2026-05-05 20:20 23.43169 124.31971 38932 ft 528 kts 45°
2026-05-05 20:21 23.47957 124.37999 38931 ft 529 kts 46°
2026-05-05 20:21 23.52793 124.44073 38931 ft 529 kts 45°
2026-05-05 20:22 23.57634 124.50124 38935 ft 530 kts 45°
2026-05-05 20:22 23.62489 124.56188 38931 ft 530 kts 45°
2026-05-05 20:23 23.67305 124.62208 38932 ft 530 kts 45°
2026-05-05 20:23 23.72168 124.68298 38933 ft 531 kts 45°
2026-05-05 20:24 23.77017 124.74377 38928 ft 531 kts 45°
2026-05-05 20:24 23.81868 124.80468 38928 ft 531 kts 45°
2026-05-05 20:25 23.86689 124.86528 38933 ft 531 kts 45°
2026-05-05 20:25 23.91540 124.92632 38926 ft 531 kts 45°
2026-05-05 20:26 23.96390 124.98744 38928 ft 531 kts 45°
2026-05-05 20:26 24.01208 125.04822 38929 ft 531 kts 45°
2026-05-05 20:27 24.06046 125.10934 38932 ft 531 kts 46°
2026-05-05 20:27 24.10889 125.17059 38933 ft 531 kts 46°
2026-05-05 20:28 24.15703 125.23156 38928 ft 532 kts 46°
2026-05-05 20:28 24.20539 125.29287 38930 ft 532 kts 46°
2026-05-05 20:29 24.25377 125.35429 38932 ft 532 kts 46°
2026-05-05 20:29 24.30213 125.41577 38932 ft 532 kts 46°
2026-05-05 20:30 24.35048 125.47730 38930 ft 532 kts 46°
2026-05-05 20:30 24.39871 125.53878 38933 ft 532 kts 46°
2026-05-05 20:31 24.44668 125.60000 38936 ft 531 kts 46°
2026-05-05 20:31 24.49495 125.66167 38934 ft 531 kts 46°
2026-05-05 20:32 24.54318 125.72337 38933 ft 531 kts 46°
2026-05-05 20:32 24.59098 125.78461 38937 ft 531 kts 46°
2026-05-05 20:33 24.63915 125.84639 38938 ft 531 kts 46°
2026-05-05 20:33 24.68725 125.90816 38940 ft 531 kts 46°
2026-05-05 20:34 24.73526 125.96991 38942 ft 530 kts 46°
2026-05-05 20:34 24.78323 126.03168 38942 ft 530 kts 46°
2026-05-05 20:35 24.83092 126.09316 38933 ft 530 kts 46°
2026-05-05 20:35 24.87885 126.15505 38939 ft 530 kts 46°
2026-05-05 20:36 24.92638 126.21648 38953 ft 529 kts 46°
2026-05-05 20:36 24.97419 126.27837 38936 ft 529 kts 46°
2026-05-05 20:37 25.02191 126.34022 38956 ft 530 kts 46°
2026-05-05 20:37 25.06971 126.40224 38943 ft 530 kts 46°
2026-05-05 20:38 25.11722 126.46398 38956 ft 531 kts 46°
2026-05-05 20:38 25.16502 126.52618 38950 ft 531 kts 47°
2026-05-05 20:39 25.21292 126.58859 38952 ft 532 kts 47°
2026-05-05 20:39 25.26078 126.65104 38947 ft 533 kts 47°
2026-05-05 20:40 25.30868 126.71362 38955 ft 533 kts 47°
2026-05-05 20:40 25.35656 126.77626 38952 ft 533 kts 47°
2026-05-05 20:41 25.40416 126.83860 38955 ft 533 kts 47°
2026-05-05 20:41 25.45206 126.90143 38959 ft 534 kts 47°
2026-05-05 20:42 25.50001 126.96441 38958 ft 534 kts 47°
2026-05-05 20:42 25.54759 127.02700 38956 ft 534 kts 47°
2026-05-05 20:43 25.59545 127.09003 38960 ft 534 kts 47°
2026-05-05 20:43 25.64413 127.15246 38962 ft 534 kts 45°
2026-05-05 20:44 25.69386 127.21383 38962 ft 535 kts 45°
2026-05-05 20:44 25.74332 127.27506 38964 ft 536 kts 45°
2026-05-05 20:45 25.81759 127.36793 38960 ft 537 kts 46°
2026-05-05 20:45 25.86712 127.43015 38965 ft 537 kts 46°
2026-05-05 20:46 25.91665 127.49243 38973 ft 537 kts 46°
2026-05-05 20:46 25.96603 127.55458 38979 ft 537 kts 46°
2026-05-05 20:47 26.00706 127.60628 38986 ft 536 kts 46°
2026-05-05 20:47 26.05644 127.66860 38992 ft 536 kts 46°
2026-05-05 20:48 26.10546 127.73054 38992 ft 536 kts 46°
2026-05-05 20:48 26.15527 127.79265 39010 ft 534 kts 41°
2026-05-05 20:49 26.21026 127.84714 39033 ft 532 kts 36°
2026-05-05 20:49 26.26697 127.90018 39029 ft 532 kts 36°
2026-05-05 20:50 26.32396 127.95305 39011 ft 533 kts 36°
2026-05-05 20:50 26.38096 128.00619 39006 ft 534 kts 36°
2026-05-05 20:51 26.43798 128.05956 38996 ft 535 kts 36°
2026-05-05 20:51 26.49476 128.11284 38994 ft 536 kts 36°
2026-05-05 20:52 26.55205 128.16665 38991 ft 538 kts 36°
2026-05-05 20:52 26.60945 128.22064 38995 ft 539 kts 36°
2026-05-05 20:53 26.66690 128.27475 38996 ft 540 kts 36°
2026-05-05 20:53 26.72436 128.32896 39000 ft 540 kts 36°
2026-05-05 20:54 26.78138 128.38280 39009 ft 539 kts 36°
2026-05-05 20:54 26.83884 128.43713 39017 ft 540 kts 36°
2026-05-05 20:55 26.89633 128.49157 39019 ft 539 kts 36°
2026-05-05 20:55 26.95368 128.54596 39018 ft 539 kts 36°
2026-05-05 20:56 27.01061 128.60002 39017 ft 540 kts 36°
2026-05-05 20:56 27.06809 128.65467 39016 ft 541 kts 36°
2026-05-05 20:57 27.12525 128.70909 39016 ft 542 kts 36°
2026-05-05 20:57 27.18278 128.76395 39021 ft 543 kts 36°
2026-05-05 20:58 27.24036 128.81894 39020 ft 544 kts 36°
2026-05-05 20:58 27.29836 128.87440 39025 ft 546 kts 36°
2026-05-05 20:59 27.35598 128.92956 39027 ft 548 kts 36°
2026-05-05 20:59 27.41419 128.98538 39023 ft 550 kts 36°
2026-05-05 21:00 27.47237 129.04126 39026 ft 550 kts 36°
2026-05-05 21:00 27.52975 129.09851 39031 ft 553 kts 44°
2026-05-05 21:01 27.58064 129.16402 39033 ft 555 kts 47°
2026-05-05 21:01 27.62962 129.23066 39035 ft 555 kts 48°
2026-05-05 21:02 27.67862 129.29794 39037 ft 554 kts 48°
2026-05-05 21:02 27.72765 129.36508 39035 ft 554 kts 48°
2026-05-05 21:03 27.77673 129.43216 39039 ft 553 kts 48°
2026-05-05 21:03 27.82549 129.49886 39038 ft 553 kts 48°
2026-05-05 21:04 27.87450 129.56602 39043 ft 553 kts 48°
2026-05-05 21:04 27.92352 129.63329 39044 ft 553 kts 48°
2026-05-05 21:05 27.97213 129.70013 39048 ft 554 kts 48°
2026-05-05 21:05 28.02110 129.76756 39048 ft 554 kts 48°
2026-05-05 21:06 28.06998 129.83498 39051 ft 554 kts 48°
2026-05-05 21:06 28.11898 129.90266 39051 ft 555 kts 48°
2026-05-05 21:07 28.16800 129.97049 39055 ft 556 kts 48°
2026-05-05 21:07 28.21664 130.03789 39052 ft 556 kts 48°
2026-05-05 21:08 28.26567 130.10595 39044 ft 556 kts 48°
2026-05-05 21:08 28.31465 130.17403 39051 ft 557 kts 48°
2026-05-05 21:09 28.36369 130.24232 39054 ft 557 kts 48°
2026-05-05 21:09 28.41238 130.31023 39059 ft 557 kts 48°
2026-05-05 21:10 28.46129 130.37855 39059 ft 557 kts 48°
2026-05-05 21:10 28.51012 130.44688 39060 ft 557 kts 48°
2026-05-05 21:11 28.55903 130.51542 39067 ft 557 kts 48°
2026-05-05 21:11 28.60750 130.58346 39066 ft 557 kts 48°
2026-05-05 21:12 28.65628 130.65206 39056 ft 558 kts 48°
2026-05-05 21:12 28.70525 130.72102 39063 ft 558 kts 48°
2026-05-05 21:13 28.75404 130.78985 39063 ft 559 kts 48°
2026-05-05 21:13 28.80259 130.85845 39061 ft 559 kts 48°
2026-05-05 21:14 28.85146 130.92762 39067 ft 560 kts 48°
2026-05-05 21:14 28.90034 130.99691 39068 ft 560 kts 48°
2026-05-05 21:15 28.94924 131.06637 39067 ft 560 kts 48°
2026-05-05 21:15 28.99806 131.13581 39068 ft 561 kts 48°
2026-05-05 21:16 29.04665 131.20505 39066 ft 562 kts 48°
2026-05-05 21:16 29.09560 131.27491 39071 ft 562 kts 48°
2026-05-05 21:17 29.14444 131.34473 39073 ft 562 kts 48°
2026-05-05 21:17 29.19304 131.41433 39073 ft 563 kts 48°
2026-05-05 21:18 29.24195 131.48448 39071 ft 563 kts 48°
2026-05-05 21:18 29.29080 131.55467 39079 ft 563 kts 49°
2026-05-05 21:19 29.33963 131.62497 39081 ft 563 kts 48°
2026-05-05 21:19 29.38827 131.69512 39083 ft 563 kts 48°
2026-05-05 21:20 29.43699 131.76548 39086 ft 564 kts 48°
2026-05-05 21:20 29.48576 131.83604 39088 ft 564 kts 48°
2026-05-05 21:21 29.53446 131.90661 39079 ft 563 kts 48°
2026-05-05 21:21 29.58290 131.97692 39084 ft 563 kts 49°
2026-05-05 21:22 29.63147 132.04757 39088 ft 563 kts 49°
2026-05-05 21:22 29.68020 132.11820 39093 ft 563 kts 47°
2026-05-05 21:23 29.72996 132.18780 39085 ft 562 kts 46°
2026-05-05 21:23 29.77958 132.25675 39090 ft 563 kts 47°
2026-05-05 21:24 29.82939 132.32650 39099 ft 563 kts 47°
2026-05-05 21:24 29.87901 132.39639 39091 ft 563 kts 47°
2026-05-05 21:25 29.92833 132.46603 39097 ft 563 kts 47°
2026-05-05 21:25 29.97790 132.53612 39102 ft 563 kts 47°
2026-05-05 21:26 30.02744 132.60629 39101 ft 563 kts 47°
2026-05-05 21:26 30.07660 132.67604 39102 ft 563 kts 47°
2026-05-05 21:27 30.12604 132.74631 39107 ft 563 kts 47°
2026-05-05 21:27 30.17542 132.81664 39110 ft 562 kts 47°
2026-05-05 21:28 30.22467 132.88687 39114 ft 562 kts 47°
2026-05-05 21:28 30.27387 132.95717 39118 ft 562 kts 47°
2026-05-05 21:29 30.32300 133.02749 39121 ft 561 kts 47°
2026-05-05 21:29 30.37177 133.09742 39124 ft 561 kts 47°
2026-05-05 21:30 30.42085 133.16792 39127 ft 561 kts 47°
2026-05-05 21:30 30.46978 133.23834 39128 ft 561 kts 47°
2026-05-05 21:31 30.51878 133.30897 39128 ft 561 kts 47°
2026-05-05 21:31 30.56770 133.37961 39135 ft 561 kts 47°
2026-05-05 21:32 30.61630 133.44992 39138 ft 561 kts 47°
2026-05-05 21:32 30.66508 133.52062 39145 ft 561 kts 47°
2026-05-05 21:33 30.71370 133.59122 39144 ft 561 kts 47°
2026-05-05 21:33 30.76244 133.66212 39142 ft 561 kts 47°
2026-05-05 21:34 30.81118 133.73315 39147 ft 561 kts 47°
2026-05-05 21:34 30.85985 133.80412 39146 ft 561 kts 47°
2026-05-05 21:35 30.90021 133.86310 39148 ft 561 kts 47°
2026-05-05 21:35 30.94880 133.93423 39139 ft 561 kts 47°
2026-05-05 21:36 30.99738 134.00548 39153 ft 560 kts 47°
2026-05-05 21:36 31.04580 134.07660 39156 ft 560 kts 47°
2026-05-05 21:37 31.09421 134.14785 39147 ft 560 kts 47°
2026-05-05 21:37 31.14249 134.21903 39160 ft 559 kts 47°
2026-05-05 21:38 31.19068 134.29022 39160 ft 559 kts 47°
2026-05-05 21:38 31.23880 134.36143 39159 ft 558 kts 47°
2026-05-05 21:39 31.28662 134.43231 39163 ft 558 kts 47°
2026-05-05 21:39 31.33457 134.50352 39166 ft 557 kts 47°
2026-05-05 21:40 31.38261 134.57501 39172 ft 557 kts 47°
2026-05-05 21:40 31.43024 134.64600 39172 ft 557 kts 47°
2026-05-05 21:41 31.47807 134.71744 39169 ft 557 kts 47°
2026-05-05 21:41 31.52583 134.78890 39171 ft 557 kts 47°
2026-05-05 21:42 31.57357 134.86047 39172 ft 557 kts 47°
2026-05-05 21:42 31.62107 134.93180 39172 ft 556 kts 47°
2026-05-05 21:43 31.66873 135.00351 39181 ft 556 kts 47°
2026-05-05 21:43 31.71640 135.07537 39181 ft 556 kts 47°
2026-05-05 21:44 31.76582 135.14416 39180 ft 552 kts 42°
2026-05-05 21:44 31.81822 135.21019 39180 ft 552 kts 41°
2026-05-05 21:45 31.87047 135.27652 39184 ft 552 kts 42°
2026-05-05 21:45 31.92204 135.34343 39183 ft 552 kts 43°
2026-05-05 21:46 31.97332 135.41065 39194 ft 551 kts 43°
2026-05-05 21:46 32.02420 135.47751 39186 ft 550 kts 43°
2026-05-05 21:47 32.07525 135.54465 39195 ft 550 kts 43°
2026-05-05 21:47 32.12633 135.61192 39193 ft 549 kts 43°
2026-05-05 21:48 32.17733 135.67919 39196 ft 549 kts 43°
2026-05-05 21:48 32.22821 135.74643 39194 ft 548 kts 43°
2026-05-05 21:49 32.27899 135.81367 39199 ft 548 kts 43°
2026-05-05 21:49 32.32968 135.88091 39197 ft 548 kts 43°
2026-05-05 21:50 32.38007 135.94787 39203 ft 547 kts 43°
2026-05-05 21:50 32.43070 136.01528 39201 ft 547 kts 43°
2026-05-05 21:51 32.48129 136.08271 39203 ft 547 kts 43°
2026-05-05 21:51 32.53195 136.15025 39205 ft 547 kts 43°
2026-05-05 21:52 32.60743 136.25116 39209 ft 547 kts 43°
2026-05-05 21:53 32.65791 136.31882 39213 ft 547 kts 43°
2026-05-05 21:53 32.70840 136.38663 39212 ft 547 kts 43°
2026-05-05 21:54 32.75878 136.45443 39212 ft 546 kts 43°
2026-05-05 21:54 32.80874 136.52177 39216 ft 545 kts 43°
2026-05-05 21:55 32.85891 136.58952 39221 ft 544 kts 43°
2026-05-05 21:55 32.90870 136.65689 39221 ft 544 kts 43°
2026-05-05 21:56 32.95863 136.72452 39222 ft 543 kts 43°
2026-05-05 21:56 33.00866 136.79232 39223 ft 543 kts 43°
2026-05-05 21:57 33.05850 136.86001 39228 ft 543 kts 43°
2026-05-05 21:57 33.10832 136.92780 39229 ft 543 kts 43°
2026-05-05 21:58 33.15780 136.99528 39228 ft 543 kts 43°
2026-05-05 21:58 33.20756 137.06327 39231 ft 543 kts 43°
2026-05-05 21:59 33.25737 137.13141 39232 ft 543 kts 43°
2026-05-05 21:59 33.30711 137.19964 39234 ft 544 kts 43°
2026-05-05 22:00 33.35652 137.26759 39233 ft 544 kts 43°
2026-05-05 22:00 33.40622 137.33606 39234 ft 544 kts 43°
2026-05-05 22:01 33.45554 137.40411 39229 ft 544 kts 43°
2026-05-05 22:01 33.50513 137.47267 39233 ft 544 kts 43°
2026-05-05 22:02 33.55469 137.54132 39228 ft 544 kts 43°
2026-05-05 22:02 33.60380 137.61097 39242 ft 549 kts 49°
2026-05-05 22:03 33.64366 137.68910 39234 ft 554 kts 57°
2026-05-05 22:03 33.68104 137.77042 39244 ft 555 kts 58°
2026-05-05 22:04 33.71789 137.85203 39234 ft 556 kts 58°
2026-05-05 22:04 33.75483 137.93354 39236 ft 556 kts 57°
2026-05-05 22:05 33.79193 138.01513 39243 ft 556 kts 57°
2026-05-05 22:05 33.82902 138.09676 39259 ft 557 kts 57°
2026-05-05 22:06 33.86608 138.17855 39248 ft 557 kts 58°
2026-05-05 22:06 33.90290 138.26000 39249 ft 557 kts 58°
2026-05-05 22:07 33.93980 138.34225 39253 ft 557 kts 58°
2026-05-05 22:07 33.97648 138.42475 39250 ft 558 kts 58°
2026-05-05 22:08 34.01307 138.50730 39250 ft 558 kts 58°
2026-05-05 22:08 34.04937 138.58928 39253 ft 558 kts 58°
2026-05-05 22:09 34.08588 138.67189 39253 ft 558 kts 58°
2026-05-05 22:09 34.12236 138.75461 39256 ft 557 kts 58°
2026-05-05 22:10 34.15876 138.83737 39256 ft 557 kts 58°
2026-05-05 22:10 34.19507 138.92013 39263 ft 557 kts 58°
2026-05-05 22:11 34.23105 139.00242 39260 ft 557 kts 58°
2026-05-05 22:11 34.26725 139.08528 39263 ft 557 kts 58°
2026-05-05 22:12 34.30028 139.17042 39265 ft 560 kts 63°
2026-05-05 22:12 34.33062 139.25728 39264 ft 561 kts 64°
2026-05-05 22:13 34.36056 139.34468 39267 ft 561 kts 64°
2026-05-05 22:13 34.39044 139.43205 39266 ft 561 kts 64°
2026-05-05 22:14 34.42034 139.51942 39268 ft 562 kts 64°
2026-05-05 22:14 34.45006 139.60642 39271 ft 562 kts 64°
2026-05-05 22:15 34.48404 139.69125 39275 ft 552 kts 49°
2026-05-05 22:15 34.50844 139.72633 39279 ft 538 kts 35°
2026-05-05 22:15 34.53677 139.75526 39280 ft 527 kts 26°
2026-05-05 22:16 34.59741 139.80245 39278 ft 518 kts 19°
2026-05-05 22:16 34.66006 139.84613 39280 ft 519 kts 19°
2026-05-05 22:17 34.71881 139.89946 39282 ft 544 kts 39°
2026-05-05 22:17 34.74210 139.93631 39286 ft 557 kts 54°
2026-05-05 22:17 34.75843 139.97938 39279 ft 565 kts 70°
2026-05-05 22:17 34.76639 140.02634 39278 ft 567 kts 86°
2026-05-05 22:18 34.76541 140.07426 39280 ft 563 kts 103°
2026-05-05 22:18 34.75586 140.11923 39279 ft 552 kts 118°
2026-05-05 22:18 34.73840 140.16017 39280 ft 536 kts 133°
2026-05-05 22:18 34.71507 140.19460 39283 ft 517 kts 147°
2026-05-05 22:19 34.68775 140.22179 39279 ft 498 kts 159°
2026-05-05 22:19 34.65798 140.24162 39283 ft 479 kts 170°
2026-05-05 22:19 34.62707 140.25412 39276 ft 459 kts 181°
2026-05-05 22:19 34.59613 140.25963 39283 ft 441 kts 191°
2026-05-05 22:20 34.56647 140.25870 39281 ft 423 kts 200°
2026-05-05 22:20 34.53779 140.25188 39278 ft 408 kts 209°
2026-05-05 22:20 34.51205 140.24019 39275 ft 394 kts 217°
2026-05-05 22:21 34.46404 140.20886 39276 ft 389 kts 220°
2026-05-05 22:21 34.41699 140.17602 39274 ft 390 kts 220°
2026-05-05 22:22 34.37164 140.14149 39272 ft 382 kts 227°
2026-05-05 22:22 34.33479 140.09708 39273 ft 367 kts 240°
2026-05-05 22:23 34.31378 140.05326 39274 ft 360 kts 251°
2026-05-05 22:23 34.30071 139.99546 39271 ft 357 kts 263°
2026-05-05 22:24 34.30107 139.93545 39271 ft 359 kts 275°
2026-05-05 22:24 34.31529 139.87701 39271 ft 368 kts 288°
2026-05-05 22:25 34.34361 139.82424 39274 ft 383 kts 302°
2026-05-05 22:25 34.36297 139.80141 39272 ft 394 kts 309°
2026-05-05 22:25 34.38530 139.78211 39272 ft 406 kts 317°
2026-05-05 22:25 34.41100 139.76655 39273 ft 420 kts 326°
2026-05-05 22:26 34.43939 139.75588 39274 ft 436 kts 335°
2026-05-05 22:26 34.47013 139.75095 39272 ft 454 kts 345°
2026-05-05 22:26 34.50250 139.75272 39275 ft 474 kts 355°
2026-05-05 22:26 34.53530 139.76202 39276 ft 494 kts
2026-05-05 22:27 34.56738 139.77883 39277 ft 508 kts 16°
2026-05-05 22:27 34.62940 139.82081 39272 ft 517 kts 20°
2026-05-05 22:28 34.69064 139.86784 39276 ft 529 kts 28°
2026-05-05 22:28 34.71826 139.89816 39279 ft 543 kts 40°
2026-05-05 22:28 34.74133 139.93519 39282 ft 555 kts 54°
2026-05-05 22:28 34.75761 139.97809 39282 ft 564 kts 70°
2026-05-05 22:29 34.76559 140.02493 39274 ft 566 kts 86°
2026-05-05 22:29 34.76462 140.07253 39277 ft 561 kts 102°
2026-05-05 22:29 34.75508 140.11744 39282 ft 550 kts 118°
2026-05-05 22:29 34.73781 140.15814 39284 ft 534 kts 133°
2026-05-05 22:30 34.71465 140.19253 39274 ft 516 kts 147°
2026-05-05 22:30 34.68739 140.21972 39277 ft 497 kts 159°
2026-05-05 22:30 34.65763 140.23947 39276 ft 478 kts 170°
2026-05-05 22:30 34.62666 140.25185 39277 ft 458 kts 181°
2026-05-05 22:31 34.59585 140.25709 39276 ft 439 kts 191°
2026-05-05 22:31 34.56591 140.25582 39279 ft 422 kts 201°
2026-05-05 22:31 34.53771 140.24881 39275 ft 406 kts 209°
2026-05-05 22:31 34.51206 140.23688 39280 ft 393 kts 218°
2026-05-05 22:32 34.48789 140.22175 39277 ft 390 kts 220°
2026-05-05 22:32 34.44076 140.18934 39275 ft 389 kts 220°
2026-05-05 22:33 34.39382 140.15650 39274 ft 388 kts 222°
2026-05-05 22:33 34.35207 140.11717 39275 ft 373 kts 234°
2026-05-05 22:34 34.32207 140.06802 39271 ft 361 kts 247°
2026-05-05 22:34 34.30509 140.01154 39269 ft 356 kts 260°
2026-05-05 22:35 34.30152 139.95193 39270 ft 357 kts 272°
2026-05-05 22:35 34.31166 139.89284 39274 ft 364 kts 284°
2026-05-05 22:36 34.33591 139.83807 39273 ft 377 kts 298°
2026-05-05 22:36 34.37371 139.79274 39267 ft 397 kts 313°
2026-05-05 22:36 34.39767 139.77490 39276 ft 410 kts 321°
2026-05-05 22:37 34.42462 139.76143 39273 ft 425 kts 330°
2026-05-05 22:37 34.45398 139.75328 39271 ft 442 kts 339°
2026-05-05 22:37 34.48547 139.75127 39273 ft 461 kts 349°
2026-05-05 22:37 34.51749 139.75620 39274 ft 480 kts
2026-05-05 22:38 34.55032 139.76913 39274 ft 500 kts 13°
2026-05-05 22:38 34.61262 139.80888 39274 ft 514 kts 19°
2026-05-05 22:39 34.67401 139.85360 39272 ft 520 kts 23°
2026-05-05 22:39 34.70319 139.88041 39284 ft 533 kts 33°
2026-05-05 22:39 34.72894 139.91352 39269 ft 546 kts 46°
2026-05-05 22:39 34.74917 139.95323 39273 ft 558 kts 61°
2026-05-05 22:40 34.76180 139.99810 39277 ft 563 kts 77°
2026-05-05 22:40 34.76573 140.04548 39274 ft 562 kts 94°
2026-05-05 22:40 34.76074 140.09230 39278 ft 555 kts 110°
2026-05-05 22:40 34.74735 140.13568 39281 ft 542 kts 126°
2026-05-05 22:41 34.72742 140.17299 39277 ft 525 kts 140°
2026-05-05 22:41 34.70191 140.20430 39276 ft 506 kts 153°
2026-05-05 22:41 34.67363 140.22765 39273 ft 487 kts 165°
2026-05-05 22:41 34.64334 140.24374 39273 ft 467 kts 175°
2026-05-05 22:42 34.61237 140.25260 39276 ft 448 kts 186°
2026-05-05 22:42 34.58190 140.25457 39278 ft 430 kts 196°
2026-05-05 22:42 34.55277 140.25040 39279 ft 414 kts 205°
2026-05-05 22:42 34.52589 140.24094 39279 ft 399 kts 213°
2026-05-05 22:43 34.50099 140.22701 39279 ft 391 kts 219°
2026-05-05 22:43 34.45366 140.19515 39278 ft 389 kts 220°
2026-05-05 22:44 34.40674 140.16245 39277 ft 389 kts 220°
2026-05-05 22:44 34.36286 140.12578 39278 ft 376 kts 231°
2026-05-05 22:45 34.32964 140.07863 39271 ft 363 kts 244°
2026-05-05 22:45 34.30968 140.02349 39283 ft 356 kts 257°
2026-05-05 22:46 34.30307 139.96490 39273 ft 355 kts 269°
2026-05-05 22:46 34.31000 139.90556 39268 ft 360 kts 282°
2026-05-05 22:47 34.33099 139.84963 39272 ft 372 kts 295°
2026-05-05 22:47 34.36566 139.80193 39270 ft 390 kts 309°
2026-05-05 22:47 34.38805 139.78252 39272 ft 403 kts 317°
2026-05-05 22:48 34.41352 139.76711 39271 ft 417 kts 326°
2026-05-05 22:48 34.44174 139.75655 39274 ft 432 kts 335°
2026-05-05 22:48 34.47215 139.75173 39272 ft 450 kts 345°
2026-05-05 22:48 34.50410 139.75353 39279 ft 469 kts 355°
2026-05-05 22:49 34.53668 139.76282 39272 ft 490 kts
2026-05-05 22:49 34.56848 139.77956 39275 ft 504 kts 15°
2026-05-05 22:49 34.59956 139.79978 39272 ft 510 kts 19°
2026-05-05 22:50 34.66072 139.84355 39269 ft 514 kts 20°
2026-05-05 22:50 34.69067 139.86793 39272 ft 525 kts 28°
2026-05-05 22:50 34.71806 139.89811 39270 ft 538 kts 40°
2026-05-05 22:50 34.74088 139.93495 39278 ft 551 kts 54°
2026-05-05 22:51 34.75688 139.97759 39272 ft 560 kts 70°
2026-05-05 22:51 34.76458 140.02409 39270 ft 562 kts 86°
2026-05-05 22:51 34.76337 140.07133 39271 ft 557 kts 103°
2026-05-05 22:51 34.75360 140.11583 39276 ft 546 kts 118°
2026-05-05 22:52 34.73616 140.15613 39278 ft 531 kts 134°
2026-05-05 22:52 34.71297 140.18987 39279 ft 513 kts 147°
2026-05-05 22:52 34.68568 140.21650 39277 ft 494 kts 159°
2026-05-05 22:52 34.65595 140.23563 39273 ft 474 kts 171°
2026-05-05 22:53 34.62514 140.24729 39277 ft 454 kts 182°
2026-05-05 22:53 34.59449 140.25193 39274 ft 436 kts 192°
2026-05-05 22:53 34.56478 140.25010 39277 ft 419 kts 201°
2026-05-05 22:53 34.53686 140.24255 39275 ft 404 kts 210°
2026-05-05 22:54 34.51125 140.23005 39281 ft 392 kts 218°
2026-05-05 22:54 34.46361 140.19883 39274 ft 388 kts 220°
2026-05-05 22:55 34.41666 140.16629 39273 ft 389 kts 220°
2026-05-05 22:55 34.37182 140.13134 39271 ft 379 kts 228°
2026-05-05 22:56 34.33644 140.08613 39278 ft 364 kts 242°
2026-05-05 22:56 34.31401 140.03228 39280 ft 356 kts 255°
2026-05-05 22:57 34.30514 139.97379 39265 ft 354 kts 267°
2026-05-05 22:57 34.30983 139.91449 39278 ft 358 kts 279°
2026-05-05 22:58 34.32845 139.85797 39267 ft 368 kts 293°
2026-05-05 22:58 34.36078 139.80889 39269 ft 385 kts 307°
2026-05-05 22:58 34.38208 139.78840 39270 ft 397 kts 315°
2026-05-05 22:59 34.40653 139.77170 39274 ft 410 kts 323°
2026-05-05 22:59 34.43379 139.75960 39273 ft 425 kts 332°
2026-05-05 22:59 34.46343 139.75294 39274 ft 443 kts 341°
2026-05-05 22:59 34.49500 139.75262 39275 ft 461 kts 352°
2026-05-05 23:00 34.55877 139.77387 39276 ft 499 kts 14°
2026-05-05 23:00 34.62066 139.81457 39268 ft 510 kts 19°
2026-05-05 23:01 34.68143 139.85969 39269 ft 518 kts 25°
2026-05-05 23:01 34.70975 139.88782 39267 ft 532 kts 36°
2026-05-05 23:01 34.73415 139.92248 39268 ft 545 kts 49°
2026-05-05 23:02 34.75226 139.96294 39269 ft 556 kts 65°
2026-05-05 23:02 34.76263 140.00822 39268 ft 560 kts 81°
2026-05-05 23:02 34.76421 140.05557 39269 ft 558 kts 98°
2026-05-05 23:02 34.75693 140.10134 39274 ft 549 kts 114°
2026-05-05 23:03 34.74160 140.14312 39278 ft 534 kts 129°
2026-05-05 23:03 34.71993 140.17881 39281 ft 517 kts 143°
2026-05-05 23:03 34.69367 140.20751 39270 ft 498 kts 156°
2026-05-05 23:03 34.66446 140.22877 39271 ft 478 kts 168°
2026-05-05 23:04 34.63424 140.24239 39271 ft 459 kts 179°
2026-05-05 23:04 34.60340 140.24898 39274 ft 440 kts 189°
2026-05-05 23:04 34.57341 140.24882 39268 ft 422 kts 199°
2026-05-05 23:04 34.54510 140.24272 39279 ft 407 kts 208°
2026-05-05 23:05 34.51883 140.23151 39279 ft 393 kts 216°
2026-05-05 23:05 34.49450 140.21684 39278 ft 388 kts 219°
2026-05-05 23:05 34.44775 140.18466 39229 ft 384 kts 222°
2026-05-05 23:06 34.40346 140.15005 38684 ft 375 kts 227°
2026-05-05 23:06 34.38384 140.12930 37702 ft 375 kts 233°
2026-05-05 23:06 34.36688 140.10518 36727 ft 376 kts 239°
2026-05-05 23:07 34.35305 140.07806 35763 ft 381 kts 246°
2026-05-05 23:07 34.34311 140.04864 35442 ft 373 kts 253°
2026-05-05 23:07 34.33677 140.01849 34973 ft 370 kts 258°
2026-05-05 23:07 34.33395 139.98721 33992 ft 381 kts 265°
2026-05-05 23:08 34.33527 139.95467 32912 ft 395 kts 272°
2026-05-05 23:08 34.34110 139.92164 31901 ft 408 kts 280°
2026-05-05 23:08 34.35169 139.88905 30882 ft 423 kts 289°
2026-05-05 23:08 34.36698 139.85834 29796 ft 440 kts 297°
2026-05-05 23:09 34.38842 139.83061 28620 ft 466 kts 313°
2026-05-05 23:09 34.41687 139.81062 28048 ft 481 kts 328°
2026-05-05 23:09 34.44958 139.80016 27485 ft 495 kts 343°
2026-05-05 23:09 34.48448 139.80007 26847 ft 510 kts 359°
2026-05-05 23:10 34.51929 139.81065 26180 ft 522 kts 14°
2026-05-05 23:10 34.55307 139.82659 25445 ft 519 kts 13°
2026-05-05 23:10 34.57585 139.83520 24897 ft 515 kts
2026-05-05 23:10 34.61067 139.84408 24189 ft 506 kts
2026-05-05 23:11 34.64475 139.85037 23050 ft 483 kts
2026-05-05 23:11 34.67776 139.85577 21281 ft 476 kts
2026-05-05 23:11 34.71056 139.86076 19524 ft 473 kts
2026-05-05 23:11 34.74307 139.86559 17857 ft 466 kts
2026-05-05 23:12 34.77444 139.87016 16396 ft 452 kts
2026-05-05 23:12 34.80502 139.87462 15404 ft 429 kts
2026-05-05 23:12 34.83357 139.87883 14864 ft 397 kts
2026-05-05 23:12 34.86008 139.88273 14404 ft 369 kts
2026-05-05 23:13 34.88471 139.88634 14010 ft 344 kts
2026-05-05 23:13 34.90787 139.88977 13428 ft 328 kts
2026-05-05 23:13 34.93023 139.89308 12615 ft 322 kts
2026-05-05 23:13 34.94736 139.89404 11918 ft 319 kts 355°
2026-05-05 23:14 34.96731 139.88956 11151 ft 315 kts 345°
2026-05-05 23:14 34.98840 139.88275 10371 ft 311 kts 344°
2026-05-05 23:14 35.00919 139.87602 9571 ft 307 kts 344°
2026-05-05 23:14 35.02974 139.86944 8790 ft 303 kts 343°
2026-05-05 23:15 35.04974 139.86308 8353 ft 291 kts 343°
2026-05-05 23:15 35.06937 139.85685 8037 ft 292 kts 343°
2026-05-05 23:15 35.08909 139.85059 7752 ft 291 kts 343°
2026-05-05 23:15 35.10869 139.84438 7462 ft 290 kts 343°
2026-05-05 23:16 35.12819 139.83819 7173 ft 289 kts 343°
2026-05-05 23:16 35.14759 139.83200 6893 ft 287 kts 342°
2026-05-05 23:16 35.16692 139.82584 6616 ft 289 kts 343°
2026-05-05 23:16 35.18612 139.81978 6352 ft 287 kts 343°
2026-05-05 23:17 35.20536 139.81365 6069 ft 283 kts 343°
2026-05-05 23:17 35.22434 139.80771 5757 ft 281 kts 343°
2026-05-05 23:17 35.24335 139.80166 5306 ft 282 kts 342°
2026-05-05 23:17 35.25975 139.79643 4930 ft 281 kts 342°
2026-05-05 23:18 35.27869 139.79039 4499 ft 281 kts 343°
2026-05-05 23:18 35.29757 139.78439 4106 ft 279 kts 343°
2026-05-05 23:18 35.31680 139.78157 3618 ft 281 kts
2026-05-05 23:18 35.33551 139.78843 3183 ft 281 kts 25°
2026-05-05 23:19 35.35273 139.79849 2939 ft 275 kts 27°
2026-05-05 23:19 35.36944 139.80837 2752 ft 254 kts 26°
2026-05-05 23:19 35.38468 139.81727 2631 ft 231 kts 26°
2026-05-05 23:19 35.39856 139.82531 2535 ft 209 kts 26°
2026-05-05 23:20 35.41134 139.83270 2466 ft 201 kts 27°
2026-05-05 23:20 35.42406 139.84005 2337 ft 203 kts 27°
2026-05-05 23:20 35.43697 139.84692 2212 ft 203 kts 20°
2026-05-05 23:20 35.45104 139.84868 2121 ft 203 kts
2026-05-05 23:21 35.46516 139.84850 2023 ft 203 kts 351°
2026-05-05 23:21 35.47874 139.84431 1866 ft 200 kts 336°
2026-05-05 23:21 35.49081 139.83644 1539 ft 198 kts 320°
2026-05-05 23:21 35.50094 139.82522 1066 ft 195 kts 309°
2026-05-05 23:22 35.50941 139.81236 709 ft 188 kts 304°
2026-05-05 23:22 35.51709 139.80048 502 ft 169 kts 310°
2026-05-05 23:22 35.52599 139.79213 313 ft 156 kts 330°
2026-05-05 23:22 35.53551 139.78647 119 ft 148 kts 330°
2026-05-05 23:23 35.54401 139.78035 29 ft 129 kts 332°
2026-05-05 23:23 35.55006 139.77611 29 ft 71 kts 330°
2026-05-05 23:23 35.55242 139.77388 29 ft 27 kts 304°
2026-05-05 23:23 35.55290 139.77191 28 ft 16 kts 237°
2026-05-05 23:24 35.55285 139.77185 28 ft 0 kts 222°
2026-05-05 23:24 35.55277 139.77185 29 ft 5 kts 188°
2026-05-05 23:24 35.55173 139.77238 29 ft 20 kts 149°
2026-05-05 23:24 35.55046 139.77329 29 ft 21 kts 152°
2026-05-05 23:25 35.54932 139.77405 29 ft 15 kts 153°
2026-05-05 23:25 35.54854 139.77355 29 ft 15 kts 238°
2026-05-05 23:25 35.54800 139.77239 29 ft 17 kts 241°
2026-05-05 23:25 35.54785 139.77207 29 ft 0 kts 239°
2026-05-05 23:26 35.54776 139.77189 29 ft 12 kts 239°
2026-05-05 23:27 35.54748 139.77130 29 ft 0 kts 239°
2026-05-05 23:27 35.54743 139.77120 29 ft 0 kts 237°
2026-05-05 23:28 35.54671 139.77097 29 ft 16 kts 164°
2026-05-05 23:28 35.54592 139.77145 28 ft 9 kts 163°
2026-05-05 23:28 35.54561 139.77121 29 ft 6 kts 229°
2026-05-05 23:28 35.54540 139.77084 29 ft 3 kts 236°
2026-05-05 23:29 35.54529 139.77063 29 ft 2 kts 237°
2026-05-05 23:29 35.54528 139.77061 29 ft 0 kts 237°